Tracking 28335 objects as of 4-Dec-2023
HD Live streaming from Space Station
objects crossing your sky now

COSMOS 2499

Track COSMOS 2499 now!
10-day predictions
COSMOS 2499 is classified as:


NORAD ID: 39765
Int'l Code: 2014-028E
Perigee: 1,158.5 km
Apogee: 1,515.8 km
Inclination: 82.4 °
Period: 112.2 minutes
Semi major axis: 7708 km
RCS: Unknown
Launch date: May 23, 2014
Source: Commonwealth of Independent States (former USSR) (CIS)
Launch site: PLESETSK MISSILE AND SPACE COMPLEX (PKMTR)
Your satellite tracking list
Your tracking list is empty




NASA's NSSDC Master Catalog

Two Line Element Set (TLE):
1 39765U 14028E   23338.16120892  .00000029  00000-0  67779-4 0  9994
2 39765  82.4476 157.2836 0231779  15.9245 344.8988 12.82865773446502
Source of the keplerian elements: Caltech